TimeMDT,TemperatureF,Dew PointF,Humidity,Sea Level PressureIn,VisibilityMPH,Wind Direction,Wind SpeedMPH,Gust SpeedMPH,PrecipitationIn,Events,Conditions,WindDirDegrees,DateUTC
12:56 AM,32.0,17.1,54,29.73,10.0,South,12.7,-,N/A,,Clear,180,2011-11-04 06:56:00
1:56 AM,30.0,16.0,56,29.73,10.0,South,11.5,-,N/A,,Clear,180,2011-11-04 07:56:00
2:56 AM,28.0,16.0,61,29.73,10.0,South,10.4,-,N/A,,Clear,180,2011-11-04 08:56:00
3:56 AM,26.1,16.0,66,29.72,10.0,South,10.4,-,N/A,,Clear,190,2011-11-04 09:56:00
4:56 AM,26.1,16.0,66,29.72,10.0,South,11.5,-,N/A,,Clear,180,2011-11-04 10:56:00
5:56 AM,27.0,16.0,63,29.73,10.0,SSW,11.5,-,N/A,,Clear,200,2011-11-04 11:56:00
6:56 AM,27.0,17.1,66,29.72,10.0,South,11.5,-,N/A,,Clear,190,2011-11-04 12:56:00
8:56 AM,30.9,19.0,61,29.73,10.0,South,6.9,-,N/A,,Clear,190,2011-11-04 14:56:00
9:56 AM,42.1,23.0,47,29.71,10.0,SSW,4.6,-,N/A,,Clear,210,2011-11-04 15:56:00
10:56 AM,48.0,23.0,37,29.69,10.0,SSW,8.1,-,N/A,,Clear,200,2011-11-04 16:56:00
12:56 PM,54.0,21.9,29,29.66,10.0,SSE,9.2,-,N/A,,Clear,160,2011-11-04 18:56:00
1:56 PM,55.0,21.9,28,29.65,10.0,South,9.2,-,N/A,,Clear,180,2011-11-04 19:56:00
2:56 PM,57.0,21.9,26,29.62,10.0,South,6.9,-,N/A,,Clear,190,2011-11-04 20:56:00
4:56 PM,53.1,23.0,31,29.62,10.0,SE,4.6,-,N/A,,Clear,140,2011-11-04 22:56:00
5:56 PM,43.0,24.1,47,29.64,10.0,ESE,8.1,-,N/A,,Clear,120,2011-11-04 23:56:00
6:56 PM,41.0,25.0,53,29.64,10.0,ESE,11.5,-,N/A,,Clear,120,2011-11-05 00:56:00
7:56 PM,37.9,25.0,60,29.62,10.0,ESE,9.2,-,N/A,,Clear,120,2011-11-05 01:56:00
9:56 PM,34.0,23.0,64,29.56,10.0,East,8.1,-,N/A,,Clear,100,2011-11-05 03:56:00
10:56 PM,37.9,25.0,60,29.54,10.0,SE,9.2,-,N/A,,Clear,140,2011-11-05 04:56:00
11:56 PM,32.0,23.0,69,29.53,10.0,ESE,8.1,-,N/A,,Clear,120,2011-11-05 05:56:00